DLH2A EDDF-EDDM

Flight info

Callsign DLH2A
Flight time 0h 24m
Altitude 23000
Route CINDY8S/18 CINDY Z74 HAREM T104 ROKIL ROKIL1A
Aircraft A388/J-SADE2E3FGHIJ3J4J5M1RWXY/LB1D1

Departure

Time 2026-05-04 11:50
Airport Frankfurt Main Airport (EDDF)

Arrival

Time 2026-05-04 12:14
Airport Munich Airport (EDDM)
Time Latitude Longitude Altitude Speed Heading
2026-05-04 11:27 50.04677 8.56043 369 ft 0 kts 340°
2026-05-04 11:28 50.04667 8.56049 368 ft 0 kts 340°
2026-05-04 11:38 50.04651 8.56058 369 ft 4 kts 340°
2026-05-04 11:39 50.04626 8.56072 368 ft 4 kts 339°
2026-05-04 11:39 50.04604 8.56092 369 ft 4 kts 307°
2026-05-04 11:40 50.04579 8.56069 365 ft 7 kts 250°
2026-05-04 11:43 50.04573 8.56045 365 ft 6 kts 250°
2026-05-04 11:43 50.04546 8.55979 367 ft 9 kts 221°
2026-05-04 11:43 50.04481 8.55943 367 ft 12 kts 198°
2026-05-04 11:44 50.04389 8.55921 364 ft 11 kts 172°
2026-05-04 11:44 50.04313 8.55949 362 ft 14 kts 158°
2026-05-04 11:44 50.04243 8.55945 364 ft 9 kts 225°
2026-05-04 11:44 50.04216 8.55840 362 ft 14 kts 249°
2026-05-04 11:45 50.04174 8.55665 363 ft 21 kts 249°
2026-05-04 11:45 50.04119 8.55435 363 ft 23 kts 250°
2026-05-04 11:45 50.04063 8.55201 362 ft 24 kts 249°
2026-05-04 11:45 50.04005 8.54958 364 ft 25 kts 250°
2026-05-04 11:46 50.03943 8.54698 359 ft 26 kts 249°
2026-05-04 11:46 50.03877 8.54427 361 ft 27 kts 243°
2026-05-04 11:46 50.03787 8.54171 357 ft 27 kts 248°
2026-05-04 11:46 50.03721 8.53895 357 ft 27 kts 250°
2026-05-04 11:47 50.03661 8.53642 356 ft 25 kts 246°
2026-05-04 11:47 50.03597 8.53383 350 ft 26 kts 252°
2026-05-04 11:47 50.03526 8.53123 352 ft 26 kts 248°
2026-05-04 11:47 50.03476 8.52894 350 ft 18 kts 251°
2026-05-04 11:48 50.03438 8.52749 338 ft 15 kts 249°
2026-05-04 11:48 50.03405 8.52632 337 ft 10 kts 234°
2026-05-04 11:48 50.03364 8.52592 336 ft 4 kts 180°
2026-05-04 11:48 50.03363 8.52592 336 ft 0 kts 178°
2026-05-04 11:49 50.03360 8.52592 337 ft 0 kts 178°
2026-05-04 11:49 50.03334 8.52593 338 ft 26 kts 178°
2026-05-04 11:49 50.02844 8.52596 339 ft 111 kts 179°
2026-05-04 11:50 50.01865 8.52607 340 ft 164 kts 180°
2026-05-04 11:50 50.00723 8.52624 877 ft 161 kts 180°
2026-05-04 11:50 49.99598 8.52648 1510 ft 159 kts 181°
2026-05-04 11:50 49.98500 8.52675 2178 ft 160 kts 183°
2026-05-04 11:51 49.97329 8.52778 2416 ft 181 kts 167°
2026-05-04 11:51 49.96172 8.53877 2818 ft 211 kts 132°
2026-05-04 11:51 49.95373 8.55937 3357 ft 234 kts 120°
2026-05-04 11:51 49.94619 8.58143 4226 ft 239 kts 118°
2026-05-04 11:52 49.94064 8.60577 5130 ft 247 kts 102°
2026-05-04 11:52 49.93934 8.63266 6024 ft 255 kts 93°
2026-05-04 11:52 49.93858 8.66140 6579 ft 277 kts 95°
2026-05-04 11:52 49.93454 8.69109 7271 ft 284 kts 118°
2026-05-04 11:53 49.92269 8.71482 8266 ft 278 kts 143°
2026-05-04 11:53 49.90693 8.73241 9209 ft 280 kts 149°
2026-05-04 11:53 49.89113 8.75009 10143 ft 284 kts 141°
2026-05-04 11:53 49.87746 8.77357 10595 ft 306 kts 127°
2026-05-04 11:55 49.70520 9.21458 18941 ft 379 kts 136°
2026-05-04 11:55 49.66951 9.27548 20014 ft 386 kts 135°
2026-05-04 11:56 49.63336 9.33769 21050 ft 393 kts 135°
2026-05-04 11:56 49.59143 9.40975 22187 ft 400 kts 135°
2026-05-04 11:56 49.56955 9.44727 22896 ft 401 kts 135°
2026-05-04 11:56 49.55165 9.47790 23005 ft 412 kts 135°
2026-05-04 11:57 49.53240 9.51077 23006 ft 425 kts 135°
2026-05-04 11:57 49.50712 9.55392 23001 ft 430 kts 135°
2026-05-04 11:57 49.46640 9.62342 23008 ft 428 kts 135°
2026-05-04 11:57 49.42658 9.69113 23019 ft 428 kts 135°
2026-05-04 11:58 49.38664 9.75883 23035 ft 428 kts 135°
2026-05-04 11:58 49.34659 9.82655 23016 ft 428 kts 135°
2026-05-04 11:58 49.30680 9.89365 23029 ft 432 kts 135°
2026-05-04 11:58 49.26637 9.96167 23028 ft 431 kts 135°
2026-05-04 11:59 49.22603 10.02932 23028 ft 431 kts 135°
2026-05-04 11:59 49.18561 10.09697 23027 ft 431 kts 135°
2026-05-04 11:59 49.14648 10.16226 23030 ft 431 kts 135°
2026-05-04 11:59 49.12619 10.19605 23032 ft 431 kts 135°
2026-05-04 12:00 49.10526 10.22870 23017 ft 431 kts 139°
2026-05-04 12:00 49.08415 10.25989 22903 ft 420 kts 138°
2026-05-04 12:00 49.06405 10.29017 22643 ft 407 kts 138°
2026-05-04 12:00 49.04418 10.31998 22355 ft 396 kts 139°
2026-05-04 12:01 49.02471 10.34886 21992 ft 391 kts 139°
2026-05-04 12:01 49.00515 10.37759 21616 ft 392 kts 139°
2026-05-04 12:02 48.81029 10.66090 16160 ft 335 kts 139°
2026-05-04 12:03 48.77741 10.70839 15246 ft 326 kts 139°
2026-05-04 12:03 48.74505 10.75501 14330 ft 322 kts 139°
2026-05-04 12:03 48.71284 10.80137 13368 ft 316 kts 139°
2026-05-04 12:03 48.68113 10.84694 12471 ft 313 kts 140°
2026-05-04 12:04 48.64991 10.89168 11283 ft 318 kts 140°
2026-05-04 12:04 48.61844 10.93662 9855 ft 317 kts 139°
2026-05-04 12:04 48.58831 10.97985 9381 ft 284 kts 139°
2026-05-04 12:04 48.55986 11.02032 8231 ft 278 kts 139°
2026-05-04 12:05 48.53197 11.05996 7140 ft 273 kts 138°
2026-05-04 12:05 48.50643 11.09622 6062 ft 271 kts 137°
2026-05-04 12:05 48.48515 11.12638 5253 ft 267 kts 136°
2026-05-04 12:05 48.47234 11.14440 5023 ft 271 kts 136°
2026-05-04 12:06 48.45856 11.16359 4957 ft 270 kts 136°
2026-05-04 12:06 48.44485 11.18278 4998 ft 269 kts 135°
2026-05-04 12:06 48.43122 11.20229 4991 ft 270 kts 135°
2026-05-04 12:06 48.41765 11.22175 4990 ft 271 kts 135°
2026-05-04 12:07 48.40395 11.24132 4994 ft 271 kts 135°
2026-05-04 12:07 48.38957 11.26171 4994 ft 270 kts 135°
2026-05-04 12:07 48.36254 11.29981 4987 ft 269 kts 135°
2026-05-04 12:07 48.34522 11.32433 4991 ft 268 kts 130°
2026-05-04 12:08 48.33594 11.34815 4995 ft 264 kts 104°
2026-05-04 12:08 48.33366 11.37469 4989 ft 249 kts 90°
2026-05-04 12:08 48.33447 11.39878 4991 ft 229 kts 84°
2026-05-04 12:08 48.33616 11.42175 4990 ft 214 kts 83°
2026-05-04 12:09 48.33853 11.45307 4993 ft 209 kts 83°
2026-05-04 12:09 48.34176 11.49484 4983 ft 206 kts 84°
2026-05-04 12:09 48.34340 11.51645 4806 ft 215 kts 83°
2026-05-04 12:09 48.34514 11.53915 4481 ft 221 kts 83°
2026-05-04 12:10 48.34697 11.56239 4168 ft 227 kts 83°
2026-05-04 12:10 48.34873 11.58574 3872 ft 221 kts 83°
2026-05-04 12:10 48.35049 11.60823 3562 ft 212 kts 82°
2026-05-04 12:10 48.35210 11.62921 3344 ft 188 kts 82°
2026-05-04 12:11 48.35353 11.64736 3089 ft 161 kts 83°
2026-05-04 12:11 48.35466 11.66312 2881 ft 143 kts 81°
2026-05-04 12:11 48.35586 11.67733 2687 ft 135 kts 82°
2026-05-04 12:11 48.35693 11.69148 2529 ft 136 kts 83°
2026-05-04 12:12 48.35809 11.70586 2367 ft 139 kts 82°
2026-05-04 12:12 48.35907 11.72046 2151 ft 142 kts 82°
2026-05-04 12:12 48.36018 11.73505 1990 ft 139 kts 80°
2026-05-04 12:12 48.36139 11.74938 1771 ft 138 kts 83°
2026-05-04 12:13 48.36247 11.76346 1575 ft 136 kts 82°
2026-05-04 12:14 48.36271 11.79198 1464 ft 1 kts 114°
2026-05-04 12:15 48.36266 11.79214 1468 ft 0 kts 114°
2026-05-04 12:15 48.36266 11.79215 1468 ft 0 kts 114°
2026-05-04 12:15 48.36265 11.79217 1463 ft 2 kts 115°
2026-05-04 12:16 48.36258 11.79241 1467 ft 5 kts 115°
2026-05-04 12:16 48.36234 11.79290 1465 ft 6 kts 155°
2026-05-04 12:16 48.36179 11.79316 1464 ft 10 kts 177°
2026-05-04 12:16 48.36094 11.79320 1466 ft 14 kts 177°
2026-05-04 12:17 48.35985 11.79337 1468 ft 17 kts 173°
2026-05-04 12:17 48.35906 11.79367 1465 ft 7 kts 159°
2026-05-04 12:17 48.35842 11.79389 1469 ft 12 kts 174°
2026-05-04 12:17 48.35807 11.79393 1464 ft 2 kts 180°
2026-05-04 12:18 48.35797 11.79388 1469 ft 3 kts 223°
2026-05-04 12:18 48.35786 11.79288 1467 ft 11 kts 260°
2026-05-04 12:18 48.35780 11.79246 1470 ft 1 kts 259°
2026-05-04 12:18 48.35780 11.79243 1470 ft 0 kts 262°